Location: Tamazert
(32.6352°N, 5.2072°W)
Time: 18:34:10
(UTC+00:00)

Courier 1B - Pass Details

Date: 05 October 2022
Orbit: 962 x 1209 km, 28.3° (Epoch: 27 November)

Event Time Altitude Azimuth Distance (km) Brightness Sun altitude
Rises 18:45:42 0° 271° (W) 3,849 13.0 -10.4°
Reaches altitude 10° 18:48:57 10° 259° (W) 2,849 11.4 -11.0°
Maximum altitude 18:54:31 26° 205° (SSW) 1,849 9.2 -12.2°
Drops below altitude 10° 18:59:52 10° 150° (SSE) 2,724 9.5 -13.3°
Enters shadow 19:01:47 - 142° (SE) 3,293 9.9 -13.7°
